sat.trackr.live / text

‹ back to catalog

KUIPER-00251

NORAD 67156 · 2025-301Z

PAYLOAD ACTIVE UNKNOWN

§ Identity

Operator
Country
US
Launch date
2025-12-16
Launch site
AFETR
Launch vehicle
Mass (kg)
RCS (m²)

External: N2YO · Heavens-Above · Gunter

§ Orbital elements

Epoch: 2026-09-20T14:12:27.476352Z

Period
97.30 min
Inclination
51.9003°
Eccentricity
0.0000617
Mean motion
14.79930295 rev/d
Perigee alt
629.1 km
Apogee alt
630.0 km
Semi-major
7,007.7 km
B*
2.2212e-4
RAAN
276.3085°
Arg perigee
44.7634°
Mean anomaly
315.3378°
Rev number
4,288

§ Raw data

KUIPER-002511 67156U 25301Z   26263.59198468  .00001472  00000+0  22212-3 0  99902 67156  51.9003 276.3085 0000617  44.7634 315.3378 14.79930295 42889

JSON: /api/v1/satellites/67156 · /tle

For live sub-satellite position, see the globe view (requires WebGL).

§ Visibility from observer

Set your observer location to see the next 7 days of passes ≥ 10°. The values pass through the URL so the page stays shareable.

No JS? Fill the form by hand. The geolocation button needs JavaScript.